Location: Mahannah Oil Field
(37.4664°N, 96.6003°W)
Time: 01:05:07
(UTC+00:00)

Tiros 1 despin weight - Pass Details

Date: 01 February 2021
Orbit: 593 x 642 km, 48.2° (Epoch: 25 February)

Event Time Altitude Azimuth Distance (km) Brightness Sun altitude
Rises 23:52:50 0° 300° (WNW) 2,869 ? -1.2°
Reaches altitude 10° 23:55:12 10° 296° (WNW) 1,954 ? -1.6°
Maximum altitude 23:59:32 52° 220° (SW) 751 ? -2.4°
Drops below altitude 10° 00:03:49 10° 144° (SE) 1,922 ? -3.2°
Sets 00:06:07 0° 139° (SE) 2,816 ? -3.7°
